Time,TemperatureF,DewpointF,PressureIn,WindDirection,WindDirectionDegrees,WindSpeedMPH,WindSpeedGustMPH,Humidity,HourlyPrecipIn,Conditions,Clouds,dailyrainin,SoftwareType,DateUTC
2013-06-27 00:00:00,78.7,25.9,27.41,NE,45,0.0,0.0,15,0.00,,,0.00,WUHU216HW,2013-06-27 07:00:00,
2013-06-27 00:01:00,78.7,25.9,27.41,NE,45,0.0,0.0,15,0.00,,,0.00,WUHU216HW,2013-06-27 07:01:00,
2013-06-27 00:06:00,78.7,25.9,27.41,NE,45,0.0,0.0,15,0.00,,,0.00,WUHU216HW,2013-06-27 07:06:00,
2013-06-27 00:30:00,78.1,25.5,27.41,NE,45,0.0,0.0,15,0.00,,,0.00,WUHU216HW,2013-06-27 07:30:00,
2013-06-27 00:31:00,78.1,25.5,27.41,NE,45,0.0,0.0,15,0.00,,,0.00,WUHU216HW,2013-06-27 07:31:00,
2013-06-27 00:36:00,78.1,25.5,27.41,NE,45,0.0,0.0,15,0.00,,,0.00,WUHU216HW,2013-06-27 07:36:00,
2013-06-27 00:41:00,78.1,25.5,27.41,NE,45,0.0,0.0,15,0.00,,,0.00,WUHU216HW,2013-06-27 07:41:00,
2013-06-27 01:00:00,78.5,22.4,27.42,NE,45,0.0,0.0,13,0.00,,,0.00,WUHU216HW,2013-06-27 08:00:00,
2013-06-27 01:01:00,78.5,22.4,27.42,NE,45,0.0,0.0,13,0.00,,,0.00,WUHU216HW,2013-06-27 08:01:00,
2013-06-27 01:06:00,78.5,22.4,27.42,NE,45,0.0,0.0,13,0.00,,,0.00,WUHU216HW,2013-06-27 08:06:00,
2013-06-27 01:30:00,77.4,24.9,27.41,ENE,68,0.0,0.0,15,0.00,,,0.00,WUHU216HW,2013-06-27 08:30:00,
2013-06-27 01:31:00,77.4,24.9,27.41,ENE,68,0.0,0.0,15,0.00,,,0.00,WUHU216HW,2013-06-27 08:31:00,
2013-06-27 01:36:00,77.4,24.9,27.41,ENE,68,0.0,0.0,15,0.00,,,0.00,WUHU216HW,2013-06-27 08:36:00,
2013-06-27 02:00:00,77.0,24.7,27.42,ENE,68,0.0,0.0,15,0.00,,,0.00,WUHU216HW,2013-06-27 09:00:00,
2013-06-27 02:01:00,77.0,24.7,27.42,ENE,68,0.0,0.0,15,0.00,,,0.00,WUHU216HW,2013-06-27 09:01:00,
2013-06-27 02:06:00,77.0,24.7,27.42,ENE,68,0.0,0.0,15,0.00,,,0.00,WUHU216HW,2013-06-27 09:06:00,
2013-06-27 02:30:00,75.2,24.8,27.43,North,0,0.0,0.0,16,0.00,,,0.00,WUHU216HW,2013-06-27 09:30:00,
2013-06-27 02:31:00,75.2,24.8,27.43,North,0,0.0,0.0,16,0.00,,,0.00,WUHU216HW,2013-06-27 09:31:00,
2013-06-27 02:36:00,75.2,24.8,27.43,North,0,0.0,0.0,16,0.00,,,0.00,WUHU216HW,2013-06-27 09:36:00,
2013-06-27 03:00:00,73.8,25.4,27.43,ENE,68,0.4,0.4,17,0.00,,,0.00,WUHU216HW,2013-06-27 10:00:00,
2013-06-27 03:01:00,73.8,25.4,27.43,ENE,68,0.0,0.0,17,0.00,,,0.00,WUHU216HW,2013-06-27 10:01:00,
2013-06-27 03:06:00,73.8,25.4,27.43,ENE,68,0.4,0.4,17,0.00,,,0.00,WUHU216HW,2013-06-27 10:06:00,
2013-06-27 03:30:00,74.7,26.1,27.43,ENE,68,0.0,0.0,17,0.00,,,0.00,WUHU216HW,2013-06-27 10:30:00,
2013-06-27 03:31:00,74.7,26.1,27.43,ENE,68,0.0,0.0,17,0.00,,,0.00,WUHU216HW,2013-06-27 10:31:00,
2013-06-27 03:36:00,74.7,26.1,27.43,ENE,68,0.0,0.0,17,0.00,,,0.00,WUHU216HW,2013-06-27 10:36:00,
2013-06-27 04:00:00,73.4,25.1,27.44,SE,135,0.0,0.0,17,0.00,,,0.00,WUHU216HW,2013-06-27 11:00:00,
2013-06-27 04:01:00,73.4,26.8,27.44,SE,135,0.0,0.0,18,0.00,,,0.00,WUHU216HW,2013-06-27 11:01:00,
2013-06-27 04:06:00,73.4,25.1,27.44,SE,135,0.0,0.0,17,0.00,,,0.00,WUHU216HW,2013-06-27 11:06:00,
2013-06-27 04:30:00,72.7,26.2,27.45,NE,45,0.0,0.0,18,0.00,,,0.00,WUHU216HW,2013-06-27 11:30:00,
2013-06-27 04:31:00,72.7,26.2,27.45,NE,45,0.0,0.0,18,0.00,,,0.00,WUHU216HW,2013-06-27 11:31:00,
2013-06-27 04:36:00,72.7,26.2,27.45,NE,45,0.0,0.0,18,0.00,,,0.00,WUHU216HW,2013-06-27 11:36:00,
2013-06-27 05:00:00,72.2,27.3,27.45,ESE,113,0.0,0.4,19,0.00,,,0.00,WUHU216HW,2013-06-27 12:00:00,
2013-06-27 05:01:00,72.2,27.3,27.45,ESE,113,0.4,0.4,19,0.00,,,0.00,WUHU216HW,2013-06-27 12:01:00,
2013-06-27 05:06:00,72.2,27.3,27.45,ESE,113,0.0,0.4,19,0.00,,,0.00,WUHU216HW,2013-06-27 12:06:00,
2013-06-27 05:30:00,71.3,30.3,27.47,NNE,23,0.0,0.0,22,0.00,,,0.00,WUHU216HW,2013-06-27 12:30:00,
2013-06-27 05:31:00,71.3,30.3,27.47,NNE,23,0.0,0.0,22,0.00,,,0.00,WUHU216HW,2013-06-27 12:31:00,
2013-06-27 05:36:00,71.3,30.3,27.47,NNE,23,0.0,0.0,22,0.00,,,0.00,WUHU216HW,2013-06-27 12:36:00,
2013-06-27 06:00:00,72.5,32.3,27.47,NNE,23,0.0,0.0,23,0.00,,,0.00,WUHU216HW,2013-06-27 13:00:00,
2013-06-27 06:01:00,72.5,32.3,27.47,NNE,23,0.0,0.0,23,0.00,,,0.00,WUHU216HW,2013-06-27 13:01:00,
2013-06-27 06:06:00,72.5,32.3,27.47,NNE,23,0.0,0.0,23,0.00,,,0.00,WUHU216HW,2013-06-27 13:06:00,
2013-06-27 06:30:00,74.0,35.6,27.48,NNE,23,0.0,0.0,25,0.00,,,0.00,WUHU216HW,2013-06-27 13:30:00,
2013-06-27 06:31:00,74.0,35.6,27.48,NNE,23,0.0,0.0,25,0.00,,,0.00,WUHU216HW,2013-06-27 13:31:00,
2013-06-27 06:36:00,74.0,35.6,27.48,NNE,23,0.0,0.0,25,0.00,,,0.00,WUHU216HW,2013-06-27 13:36:00,
2013-06-27 07:00:00,76.0,39.3,27.49,SSW,203,0.0,0.0,27,0.00,,,0.00,WUHU216HW,2013-06-27 14:00:00,
2013-06-27 07:01:00,75.8,39.2,27.49,SSW,203,0.0,0.0,27,0.00,,,0.00,WUHU216HW,2013-06-27 14:01:00,
2013-06-27 07:06:00,76.0,39.3,27.49,SSW,203,0.0,0.0,27,0.00,,,0.00,WUHU216HW,2013-06-27 14:06:00,
2013-06-27 07:30:00,78.3,37.1,27.49,SW,225,0.0,0.0,23,0.00,,,0.00,WUHU216HW,2013-06-27 14:30:00,
2013-06-27 07:31:00,78.3,37.1,27.49,SW,225,0.0,0.0,23,0.00,,,0.00,WUHU216HW,2013-06-27 14:31:00,
2013-06-27 07:36:00,78.3,37.1,27.49,SW,225,0.0,0.0,23,0.00,,,0.00,WUHU216HW,2013-06-27 14:36:00,
2013-06-27 08:00:00,81.0,39.4,27.50,WSW,248,0.4,0.4,23,0.00,,,0.00,WUHU216HW,2013-06-27 15:00:00,
2013-06-27 08:01:00,80.8,39.2,27.50,WSW,248,0.4,0.4,23,0.00,,,0.00,WUHU216HW,2013-06-27 15:01:00,
2013-06-27 08:06:00,81.0,39.4,27.50,WSW,248,0.4,0.4,23,0.00,,,0.00,WUHU216HW,2013-06-27 15:06:00,
2013-06-27 08:30:00,84.2,40.0,27.49,WSW,248,1.1,1.3,21,0.00,,,0.00,WUHU216HW,2013-06-27 15:30:00,
2013-06-27 08:31:00,84.1,40.9,27.49,WSW,248,1.3,1.3,22,0.00,,,0.00,WUHU216HW,2013-06-27 15:31:00,
2013-06-27 08:36:00,84.2,40.0,27.49,WSW,248,1.1,1.3,21,0.00,,,0.00,WUHU216HW,2013-06-27 15:36:00,
2013-06-27 09:00:00,86.6,41.9,27.49,SW,225,1.3,1.3,21,0.00,,,0.00,WUHU216HW,2013-06-27 16:00:00,
2013-06-27 09:01:00,86.6,41.9,27.49,SSW,203,0.4,0.4,21,0.00,,,0.00,WUHU216HW,2013-06-27 16:01:00,
2013-06-27 09:06:00,86.6,41.9,27.49,SW,225,1.3,1.3,21,0.00,,,0.00,WUHU216HW,2013-06-27 16:06:00,
2013-06-27 09:30:00,88.7,39.2,27.48,South,180,1.1,1.3,18,0.00,,,0.00,WUHU216HW,2013-06-27 16:30:00,
2013-06-27 09:31:00,88.6,39.1,27.48,SE,135,1.3,1.3,18,0.00,,,0.00,WUHU216HW,2013-06-27 16:31:00,
2013-06-27 09:36:00,88.7,39.2,27.48,South,180,1.1,1.3,18,0.00,,,0.00,WUHU216HW,2013-06-27 16:36:00,
2013-06-27 10:00:00,91.6,39.7,27.48,SW,225,0.7,0.7,17,0.00,,,0.00,WUHU216HW,2013-06-27 17:00:00,
2013-06-27 10:01:00,91.6,39.7,27.48,SW,225,0.7,0.7,17,0.00,,,0.00,WUHU216HW,2013-06-27 17:01:00,
2013-06-27 10:06:00,91.6,39.7,27.48,SW,225,0.7,0.7,17,0.00,,,0.00,WUHU216HW,2013-06-27 17:06:00,
2013-06-27 10:30:00,93.1,37.3,27.48,ENE,68,1.1,1.1,15,0.00,,,0.00,WUHU216HW,2013-06-27 17:30:00,
2013-06-27 10:31:00,93.1,37.3,27.48,ENE,68,1.1,1.1,15,0.00,,,0.00,WUHU216HW,2013-06-27 17:31:00,
2013-06-27 10:36:00,93.1,37.3,27.48,ENE,68,1.1,1.1,15,0.00,,,0.00,WUHU216HW,2013-06-27 17:36:00,
2013-06-27 11:00:00,96.3,36.3,27.47,WSW,248,2.0,2.0,13,0.00,,,0.00,WUHU216HW,2013-06-27 18:00:00,
2013-06-27 11:01:00,96.3,36.3,27.47,WSW,248,2.0,2.0,13,0.00,,,0.00,WUHU216HW,2013-06-27 18:01:00,
2013-06-27 11:06:00,96.3,36.3,27.47,WSW,248,2.0,2.0,13,0.00,,,0.00,WUHU216HW,2013-06-27 18:06:00,
2013-06-27 11:30:00,97.6,40.9,27.46,WNW,293,1.3,1.8,15,0.00,,,0.00,WUHU216HW,2013-06-27 18:30:00,
2013-06-27 11:31:00,97.6,40.9,27.46,ENE,68,1.8,1.8,15,0.00,,,0.00,WUHU216HW,2013-06-27 18:31:00,
2013-06-27 11:36:00,97.6,40.9,27.46,WNW,293,1.3,1.8,15,0.00,,,0.00,WUHU216HW,2013-06-27 18:36:00,
2013-06-27 12:00:00,100.4,37.8,27.45,West,270,5.4,5.4,12,0.00,,,0.00,WUHU216HW,2013-06-27 19:00:00,
2013-06-27 12:01:00,100.4,41.4,27.45,East,90,1.1,1.1,14,0.00,,,0.00,WUHU216HW,2013-06-27 19:01:00,
2013-06-27 12:06:00,100.4,37.8,27.45,West,270,5.4,5.4,12,0.00,,,0.00,WUHU216HW,2013-06-27 19:06:00,
2013-06-27 12:30:00,101.9,38.9,27.43,South,180,2.2,2.7,12,0.00,,,0.00,WUHU216HW,2013-06-27 19:30:00,
2013-06-27 12:31:00,101.9,38.9,27.43,SE,135,2.7,2.7,12,0.00,,,0.00,WUHU216HW,2013-06-27 19:31:00,
2013-06-27 12:36:00,101.9,38.9,27.43,South,180,2.2,2.7,12,0.00,,,0.00,WUHU216HW,2013-06-27 19:36:00,
2013-06-27 13:00:00,103.5,36.5,27.42,WSW,248,3.4,3.4,10,0.00,,,0.00,WUHU216HW,2013-06-27 20:00:00,
2013-06-27 13:01:00,103.5,38.3,27.42,SSW,203,3.4,3.4,11,0.00,,,0.00,WUHU216HW,2013-06-27 20:01:00,
2013-06-27 13:06:00,103.5,36.5,27.42,WSW,248,3.4,3.4,10,0.00,,,0.00,WUHU216HW,2013-06-27 20:06:00,
2013-06-27 13:30:00,104.2,37.0,27.40,WSW,248,5.4,5.4,10,0.00,,,0.00,WUHU216HW,2013-06-27 20:30:00,
2013-06-27 13:32:00,104.2,37.0,27.40,WSW,248,5.4,5.4,10,0.00,,,0.00,WUHU216HW,2013-06-27 20:32:00,
2013-06-27 13:37:00,104.2,37.0,27.40,WSW,248,5.4,5.4,10,0.00,,,0.00,WUHU216HW,2013-06-27 20:37:00,
2013-06-27 14:00:00,104.9,37.5,27.38,WSW,248,4.7,4.7,8,0.00,,,0.00,WUHU216HW,2013-06-27 21:00:00,
2013-06-27 14:01:00,104.9,37.5,27.38,WSW,248,4.5,4.5,8,0.00,,,0.00,WUHU216HW,2013-06-27 21:01:00,
2013-06-27 14:06:00,104.9,37.5,27.38,WSW,248,4.7,4.7,8,0.00,,,0.00,WUHU216HW,2013-06-27 21:06:00,
2013-06-27 14:30:00,106.2,38.4,27.37,WSW,248,2.7,4.0,8,0.00,,,0.00,WUHU216HW,2013-06-27 21:30:00,
2013-06-27 14:31:00,106.2,38.4,27.37,West,270,4.0,4.0,8,0.00,,,0.00,WUHU216HW,2013-06-27 21:31:00,
2013-06-27 14:37:00,106.2,38.4,27.37,WSW,248,2.7,4.0,8,0.00,,,0.00,WUHU216HW,2013-06-27 21:37:00,
2013-06-27 15:00:00,105.7,38.1,27.36,WSW,248,4.0,5.1,8,0.00,,,0.00,WUHU216HW,2013-06-27 22:00:00,
2013-06-27 15:01:00,105.7,38.1,27.36,West,270,5.1,5.1,8,0.00,,,0.00,WUHU216HW,2013-06-27 22:01:00,
2013-06-27 15:06:00,105.7,38.1,27.36,WSW,248,4.0,5.1,8,0.00,,,0.00,WUHU216HW,2013-06-27 22:06:00,
2013-06-27 15:30:00,105.8,38.2,27.35,WSW,248,4.0,4.5,8,0.00,,,0.00,WUHU216HW,2013-06-27 22:30:00,
2013-06-27 15:31:00,105.8,38.2,27.35,WSW,248,4.5,4.5,8,0.00,,,0.00,WUHU216HW,2013-06-27 22:31:00,
2013-06-27 15:37:00,105.8,38.2,27.35,WSW,248,4.0,4.5,8,0.00,,,0.00,WUHU216HW,2013-06-27 22:37:00,
2013-06-27 16:00:00,106.2,38.4,27.34,West,270,5.1,6.7,8,0.00,,,0.00,WUHU216HW,2013-06-27 23:00:00,
2013-06-27 16:01:00,106.2,38.4,27.34,WNW,293,6.7,6.7,8,0.00,,,0.00,WUHU216HW,2013-06-27 23:01:00,
2013-06-27 16:06:00,106.2,38.4,27.34,West,270,5.1,6.7,8,0.00,,,0.00,WUHU216HW,2013-06-27 23:06:00,
2013-06-27 16:30:00,106.9,39.1,27.33,West,270,6.3,6.3,8,0.00,,,0.00,WUHU216HW,2013-06-27 23:30:00,
2013-06-27 16:31:00,106.9,39.1,27.33,WNW,293,2.7,2.7,8,0.00,,,0.00,WUHU216HW,2013-06-27 23:31:00,
2013-06-27 16:37:00,106.9,39.1,27.33,West,270,6.3,6.3,8,0.00,,,0.00,WUHU216HW,2013-06-27 23:37:00,
2013-06-27 17:00:00,106.9,39.1,27.32,SW,225,5.4,5.4,8,0.00,,,0.00,WUHU216HW,2013-06-28 00:00:00,
2013-06-27 17:01:00,106.9,39.1,27.32,SW,225,4.0,4.0,8,0.00,,,0.00,WUHU216HW,2013-06-28 00:01:00,
2013-06-27 17:06:00,106.9,39.1,27.32,SW,225,5.4,5.4,8,0.00,,,0.00,WUHU216HW,2013-06-28 00:06:00,
2013-06-27 17:30:00,106.2,38.4,27.32,West,270,1.8,1.8,8,0.00,,,0.00,WUHU216HW,2013-06-28 00:30:00,
2013-06-27 17:31:00,106.2,38.4,27.32,West,270,1.8,1.8,8,0.00,,,0.00,WUHU216HW,2013-06-28 00:31:00,
2013-06-27 17:36:00,106.2,38.4,27.32,West,270,1.8,1.8,8,0.00,,,0.00,WUHU216HW,2013-06-28 00:36:00,
2013-06-27 18:00:00,105.7,38.1,27.33,SW,225,1.8,2.5,8,0.00,,,0.00,WUHU216HW,2013-06-28 01:00:00,
2013-06-27 18:01:00,105.7,38.1,27.33,SW,225,2.5,2.5,8,0.00,,,0.00,WUHU216HW,2013-06-28 01:01:00,
2013-06-27 18:06:00,105.7,38.1,27.33,SW,225,1.8,2.5,8,0.00,,,0.00,WUHU216HW,2013-06-28 01:06:00,
2013-06-27 18:30:00,104.9,37.5,27.33,SW,225,1.8,1.8,8,0.00,,,0.00,WUHU216HW,2013-06-28 01:30:00,
2013-06-27 18:32:00,104.9,37.5,27.33,SW,225,1.8,1.8,8,0.00,,,0.00,WUHU216HW,2013-06-28 01:32:00,
2013-06-27 18:37:00,104.9,37.5,27.33,SW,225,1.8,1.8,8,0.00,,,0.00,WUHU216HW,2013-06-28 01:37:00,
2013-06-27 19:00:00,102.8,35.9,27.34,SW,225,2.5,2.5,8,0.00,,,0.00,WUHU216HW,2013-06-28 02:00:00,
2013-06-27 19:01:00,102.8,35.9,27.34,SW,225,2.5,2.5,8,0.00,,,0.00,WUHU216HW,2013-06-28 02:01:00,
2013-06-27 19:06:00,102.8,35.9,27.34,SW,225,2.5,2.5,8,0.00,,,0.00,WUHU216HW,2013-06-28 02:06:00,
2013-06-27 19:30:00,100.4,36.0,27.34,NNE,23,0.0,0.2,11,0.00,,,0.00,WUHU216HW,2013-06-28 02:30:00,
2013-06-27 19:31:00,100.4,36.0,27.34,NNE,23,0.2,0.2,11,0.00,,,0.00,WUHU216HW,2013-06-28 02:31:00,
2013-06-27 19:36:00,100.4,36.0,27.34,NNE,23,0.0,0.2,11,0.00,,,0.00,WUHU216HW,2013-06-28 02:36:00,
2013-06-27 20:00:00,97.4,33.6,27.35,SW,225,0.0,0.0,11,0.00,,,0.00,WUHU216HW,2013-06-28 03:00:00,
2013-06-27 20:02:00,97.6,33.7,27.35,SW,225,0.0,0.0,11,0.00,,,0.00,WUHU216HW,2013-06-28 03:02:00,
2013-06-27 20:07:00,97.4,33.6,27.35,SW,225,0.0,0.0,11,0.00,,,0.00,WUHU216HW,2013-06-28 03:07:00,
2013-06-27 20:30:00,95.8,34.1,27.35,NNW,338,0.0,0.0,12,0.00,,,0.00,WUHU216HW,2013-06-28 03:30:00,
2013-06-27 20:32:00,95.8,34.1,27.35,NNW,338,0.0,0.0,12,0.00,,,0.00,WUHU216HW,2013-06-28 03:32:00,
2013-06-27 20:37:00,95.8,34.1,27.35,NNW,338,0.0,0.0,12,0.00,,,0.00,WUHU216HW,2013-06-28 03:37:00,
2013-06-27 21:00:00,93.4,32.3,27.36,East,90,0.0,0.0,12,0.00,,,0.00,WUHU216HW,2013-06-28 04:00:00,
2013-06-27 21:01:00,93.4,32.3,27.36,East,90,0.0,0.0,12,0.00,,,0.00,WUHU216HW,2013-06-28 04:01:00,
2013-06-27 21:06:00,93.4,32.3,27.36,East,90,0.0,0.0,12,0.00,,,0.00,WUHU216HW,2013-06-28 04:06:00,
2013-06-27 21:30:00,92.0,33.0,27.37,SE,135,0.4,0.4,13,0.00,,,0.00,WUHU216HW,2013-06-28 04:30:00,
2013-06-27 21:31:00,92.0,33.0,27.37,SE,135,0.4,0.4,13,0.00,,,0.00,WUHU216HW,2013-06-28 04:31:00,
2013-06-27 21:36:00,92.0,33.0,27.37,SE,135,0.4,0.4,13,0.00,,,0.00,WUHU216HW,2013-06-28 04:36:00,
2013-06-27 22:00:00,90.5,31.9,27.37,South,180,0.0,0.0,13,0.00,,,0.00,WUHU216HW,2013-06-28 05:00:00,
2013-06-27 22:01:00,90.5,31.9,27.37,South,180,0.0,0.0,13,0.00,,,0.00,WUHU216HW,2013-06-28 05:01:00,
2013-06-27 22:06:00,90.5,31.9,27.37,South,180,0.0,0.0,13,0.00,,,0.00,WUHU216HW,2013-06-28 05:06:00,
2013-06-27 22:30:00,88.9,34.1,27.38,ENE,68,0.0,0.0,15,0.00,,,0.00,WUHU216HW,2013-06-28 05:30:00,
2013-06-27 22:31:00,88.9,34.1,27.38,East,90,0.0,0.0,15,0.00,,,0.00,WUHU216HW,2013-06-28 05:31:00,
2013-06-27 22:36:00,88.9,34.1,27.38,ENE,68,0.0,0.0,15,0.00,,,0.00,WUHU216HW,2013-06-28 05:36:00,
2013-06-27 23:00:00,88.2,33.6,27.38,SE,135,0.0,0.0,15,0.00,,,0.00,WUHU216HW,2013-06-28 06:00:00,
2013-06-27 23:01:00,88.4,33.8,27.38,SE,135,0.0,0.0,15,0.00,,,0.00,WUHU216HW,2013-06-28 06:01:00,
2013-06-27 23:06:00,88.2,33.6,27.38,SE,135,0.0,0.0,15,0.00,,,0.00,WUHU216HW,2013-06-28 06:06:00,
2013-06-27 23:30:00,85.7,33.2,27.38,ENE,68,0.4,0.4,16,0.00,,,0.00,WUHU216HW,2013-06-28 06:30:00,
2013-06-27 23:31:00,85.9,33.3,27.38,ENE,68,0.4,0.4,16,0.00,,,0.00,WUHU216HW,2013-06-28 06:31:00,
2013-06-27 23:36:00,85.7,33.2,27.38,ENE,68,0.4,0.4,16,0.00,,,0.00,WUHU216HW,2013-06-28 06:36:00,